Погода в Тихорецком

Россия / Омская область     54°24′37″N   74°04′15″E
темп.,
°C
ветер,
м/с
пор.,
м/с
влажн.,
%
обл.,
%
осадки,
мм/ч
давл.,
гПа
погр.,
м
25 января, вт
вт2500:00−19юз3591100 0.0 103878
03:00−18юз3692100 0.0 103784
06:00−17юз3892100 0.0 1035128
09:00−14юз3992100 0.0 1033203
12:00−12ююз4992100 0.0 1031244
15:00−11юз4889100 0.0 1029328
18:00−11юз3791100 0.0 1028254
21:00−11юз4893100 0.1 1026283
26 января, ср
ср2600:00−11юз4896100 1.2 1025305
03:00−10зюз4895100 1.3 1024408
06:00−12зсз369778 1.4 1024102
09:00−19сз2210099 0.1 102617
12:00−15сз2310097 0.1 102763
15:00−14ссз119718 0.0 102810
18:00−20з1110055 0.0 10319
21:00−22ююз1110090 0.0 10329
27 января, чт
чт2700:00−24юз11100100 0.0 10339
03:00−24ю22100100 0.0 10339
06:00−23ююз22100100 0.1 103418
09:00−24ю22100100 0.0 103521
12:00−17ю3596100 0.1 1034103
15:00−14ю3592100 0.0 1034159
18:00−17ююв359461 0.0 103455
21:00−20ююв359736 0.0 103454
28 января, пт
пт2800:00−22ююв239817 0.0 103333
03:00−21ююв239865 0.0 103236
06:00−22ю239768 0.0 103235
09:00−22ю229576 0.0 103213
12:00−16ю3586100 0.0 1032122
15:00−13ююв2587100 0.0 1031133
18:00−19ююв339593 0.0 103134
21:00−17ююв3592100 0.0 103165
29 января, сб
сб2900:00−17ююв3590100 0.0 103069
03:00−20юв229791 0.0 103029
06:00−20юв369450 0.0 103064
09:00−20юв379261 0.0 102995
12:00−15юв41087100 0.0 1029186
15:00−12юв5118592 0.0 1028258
18:00−13вюв5148592 0.0 1026231
21:00−14вюв615835 0.0 1025261